TimeEDT,TemperatureF,Dew PointF,Humidity,Sea Level PressureIn,VisibilityMPH,Wind Direction,Wind SpeedMPH,Gust SpeedMPH,PrecipitationIn,Events,Conditions,WindDirDegrees,DateUTC
12:15 AM,57.4,54.5,90,30.26,10.0,Calm,Calm,-,N/A,,Overcast,0,2013-08-17 04:15:00
12:35 AM,57.4,54.7,91,30.26,10.0,Calm,Calm,-,N/A,,Overcast,0,2013-08-17 04:35:00
12:55 AM,57.2,54.1,89,30.27,10.0,Calm,Calm,-,N/A,,Overcast,0,2013-08-17 04:55:00
1:15 AM,57.2,54.0,89,30.26,10.0,Calm,Calm,-,N/A,,Overcast,0,2013-08-17 05:15:00
1:35 AM,56.8,53.2,88,30.25,10.0,Calm,Calm,-,N/A,,Mostly Cloudy,0,2013-08-17 05:35:00
1:55 AM,56.3,53.2,89,30.25,10.0,Calm,Calm,-,N/A,,Overcast,0,2013-08-17 05:55:00
2:15 AM,55.8,52.7,89,30.25,10.0,Calm,Calm,-,N/A,,Mostly Cloudy,0,2013-08-17 06:15:00
2:35 AM,55.9,52.2,87,30.24,10.0,Calm,Calm,-,N/A,,Scattered Clouds,0,2013-08-17 06:35:00
2:55 AM,55.9,52.5,88,30.24,10.0,Calm,Calm,-,N/A,,Mostly Cloudy,0,2013-08-17 06:55:00
3:15 AM,55.9,52.2,87,30.25,10.0,Calm,Calm,-,N/A,,Mostly Cloudy,0,2013-08-17 07:15:00
3:35 AM,55.4,52.2,89,30.25,10.0,Calm,Calm,-,N/A,,Scattered Clouds,0,2013-08-17 07:35:00
3:55 AM,55.4,52.0,88,30.25,10.0,Calm,Calm,-,N/A,,Mostly Cloudy,0,2013-08-17 07:55:00
4:15 AM,55.4,52.0,88,30.25,10.0,Calm,Calm,-,N/A,,Scattered Clouds,0,2013-08-17 08:15:00
4:35 AM,54.9,52.2,91,30.25,10.0,Calm,Calm,-,N/A,,Scattered Clouds,0,2013-08-17 08:35:00
4:55 AM,55.0,52.2,90,30.25,10.0,Calm,Calm,-,N/A,,Scattered Clouds,0,2013-08-17 08:55:00
5:15 AM,54.9,52.0,90,30.25,10.0,Calm,Calm,-,N/A,,Scattered Clouds,0,2013-08-17 09:15:00
5:35 AM,54.3,51.8,91,30.25,7.0,Calm,Calm,-,N/A,,Overcast,0,2013-08-17 09:35:00
5:55 AM,54.0,51.3,91,30.25,10.0,Calm,Calm,-,N/A,,Overcast,0,2013-08-17 09:55:00
6:15 AM,53.6,51.3,92,30.25,10.0,Calm,Calm,-,N/A,,Scattered Clouds,0,2013-08-17 10:15:00
6:35 AM,53.6,51.3,92,30.25,10.0,Calm,Calm,-,N/A,,Clear,0,2013-08-17 10:35:00
6:55 AM,53.6,51.3,92,30.26,7.0,Calm,Calm,-,N/A,,Clear,0,2013-08-17 10:55:00
7:15 AM,53.4,51.4,93,30.26,4.0,Calm,Calm,-,N/A,,Clear,0,2013-08-17 11:15:00
7:35 AM,52.9,51.1,94,30.26,3.0,Calm,Calm,-,N/A,,Scattered Clouds,0,2013-08-17 11:35:00
7:55 AM,52.9,51.1,94,30.27,1.0,Calm,Calm,-,N/A,,Overcast,0,2013-08-17 11:55:00
8:15 AM,53.6,52.0,94,30.27,0.2,Calm,Calm,-,N/A,Fog,Fog,0,2013-08-17 12:15:00
8:35 AM,54.0,52.3,94,30.27,0.8,Calm,Calm,-,N/A,,Overcast,0,2013-08-17 12:35:00
8:55 AM,54.3,52.7,94,30.27,2.5,Calm,Calm,-,N/A,,Overcast,0,2013-08-17 12:55:00
9:15 AM,54.7,52.9,94,30.27,7.0,Calm,Calm,-,N/A,,Overcast,0,2013-08-17 13:15:00
9:35 AM,55.8,52.7,89,30.27,10.0,Calm,Calm,-,N/A,,Mostly Cloudy,0,2013-08-17 13:35:00
9:55 AM,56.7,53.2,88,30.27,10.0,NE,3.5,-,N/A,,Mostly Cloudy,40,2013-08-17 13:55:00
10:15 AM,56.8,52.5,85,30.28,10.0,Calm,Calm,-,N/A,,Overcast,0,2013-08-17 14:15:00
10:35 AM,57.6,53.2,85,30.28,10.0,ENE,3.5,-,N/A,,Overcast,70,2013-08-17 14:35:00
10:55 AM,58.1,53.1,83,30.29,10.0,Calm,Calm,-,N/A,,Overcast,0,2013-08-17 14:55:00
11:15 AM,58.5,52.7,81,30.29,10.0,Calm,Calm,-,N/A,,Overcast,0,2013-08-17 15:15:00
11:35 AM,59.7,52.7,78,30.29,10.0,Calm,Calm,-,N/A,,Overcast,0,2013-08-17 15:35:00
11:55 AM,60.6,53.1,76,30.29,10.0,Calm,Calm,-,N/A,,Overcast,0,2013-08-17 15:55:00
12:15 PM,61.7,54.0,76,30.29,10.0,Calm,Calm,-,N/A,,Overcast,0,2013-08-17 16:15:00
12:35 PM,61.7,54.0,76,30.28,10.0,Calm,Calm,-,N/A,,Overcast,0,2013-08-17 16:35:00
12:55 PM,61.7,54.5,77,30.27,10.0,SSE,3.5,-,N/A,,Overcast,150,2013-08-17 16:55:00
1:15 PM,62.8,55.0,76,30.27,10.0,Calm,Calm,-,N/A,,Overcast,0,2013-08-17 17:15:00
1:35 PM,62.1,55.0,78,30.27,10.0,East,4.6,-,N/A,,Overcast,100,2013-08-17 17:35:00
1:55 PM,61.9,55.8,80,30.26,10.0,Calm,Calm,-,N/A,,Overcast,0,2013-08-17 17:55:00
2:15 PM,61.7,56.1,82,30.26,10.0,East,5.8,-,N/A,,Overcast,80,2013-08-17 18:15:00
2:35 PM,61.7,56.3,82,30.25,10.0,East,5.8,-,N/A,,Overcast,100,2013-08-17 18:35:00
2:55 PM,61.7,56.7,84,30.25,10.0,ESE,5.8,-,N/A,,Overcast,110,2013-08-17 18:55:00
3:15 PM,61.5,57.4,86,30.25,10.0,ESE,3.5,-,N/A,,Overcast,110,2013-08-17 19:15:00
3:35 PM,60.8,57.4,88,30.25,3.0,East,4.6,-,N/A,,Overcast,100,2013-08-17 19:35:00
3:55 PM,60.3,58.1,93,30.25,1.5,East,3.5,-,N/A,,Overcast,90,2013-08-17 19:55:00
4:15 PM,60.1,58.1,93,30.24,1.2,Calm,Calm,-,N/A,,Overcast,0,2013-08-17 20:15:00
4:35 PM,60.1,58.1,93,30.24,1.8,East,3.5,-,N/A,,Overcast,90,2013-08-17 20:35:00
4:55 PM,60.1,58.3,94,30.24,2.0,Calm,Calm,-,N/A,,Drizzle,0,2013-08-17 20:55:00
5:15 PM,60.3,58.5,94,30.24,1.8,Calm,Calm,-,N/A,,Drizzle,0,2013-08-17 21:15:00
5:35 PM,60.1,58.3,94,30.24,1.8,ENE,4.6,-,N/A,Rain,Rain,70,2013-08-17 21:35:00
5:55 PM,60.1,58.5,94,30.24,3.0,Calm,Calm,-,N/A,Rain,Light Rain,0,2013-08-17 21:55:00
6:15 PM,60.1,58.5,94,30.24,1.8,East,3.5,-,N/A,,Light Drizzle,100,2013-08-17 22:15:00
6:35 PM,59.9,58.3,94,30.24,1.5,East,4.6,-,N/A,,Light Drizzle,80,2013-08-17 22:35:00
6:55 PM,59.9,58.3,94,30.24,2.0,East,3.5,-,N/A,Rain,Rain,90,2013-08-17 22:55:00
7:15 PM,59.9,58.3,94,30.24,1.5,Calm,Calm,-,N/A,Rain,Light Rain,0,2013-08-17 23:15:00
7:35 PM,60.1,58.5,94,30.23,1.5,East,5.8,-,N/A,Rain,Light Rain,80,2013-08-17 23:35:00
7:55 PM,60.1,58.5,94,30.23,1.8,East,3.5,-,N/A,Rain,Rain,80,2013-08-17 23:55:00
8:15 PM,60.3,58.6,94,30.24,1.0,Calm,Calm,-,N/A,Rain,Heavy Rain,0,2013-08-18 00:15:00
8:35 PM,60.1,58.5,94,30.24,1.5,Calm,Calm,-,N/A,,Drizzle,0,2013-08-18 00:35:00
8:55 PM,59.9,58.3,94,30.24,1.5,NNE,3.5,-,N/A,Rain,Rain,30,2013-08-18 00:55:00
9:15 PM,59.9,58.1,94,30.24,2.0,Calm,Calm,-,N/A,,Drizzle,0,2013-08-18 01:15:00
9:35 PM,59.9,58.3,94,30.25,2.5,Calm,Calm,-,0.01,Rain,Heavy Rain,0,2013-08-18 01:35:00
9:55 PM,59.9,58.3,94,30.25,3.0,Calm,Calm,-,0.07,Rain,Heavy Rain,0,2013-08-18 01:55:00
10:15 PM,59.9,58.1,94,30.25,3.0,Calm,Calm,-,0.07,Rain,Rain,0,2013-08-18 02:15:00
10:35 PM,59.9,58.3,94,30.25,1.5,Calm,Calm,-,0.09,Rain,Rain,0,2013-08-18 02:35:00
10:55 PM,59.7,58.1,94,30.25,2.5,Calm,Calm,-,0.10,Rain,Rain,0,2013-08-18 02:55:00
11:15 PM,59.7,58.1,94,30.25,1.5,Calm,Calm,-,N/A,Rain,Heavy Rain,0,2013-08-18 03:15:00
11:35 PM,59.4,58.1,96,30.26,1.2,Calm,Calm,-,N/A,,Heavy Drizzle,0,2013-08-18 03:35:00
11:55 PM,59.9,58.1,94,30.25,2.5,Calm,Calm,-,N/A,Rain,Rain,0,2013-08-18 03:55:00